412P/WISE (2020)

Japanese version
Home page
Updated on February 20, 2021

---------------------------------------------------------------------

* Profile

Designation 412P/2020 Y1
Recovery Date December 19, 2020
Magnitude 20.1 mag
Recoverer Q.-z. Ye, J. M. Bauer, T. Farnham, L. Feaga, M. S. P. Kelley (Lowell Discovery Telescope)

* Orbital Elements

Epoch 2020 Dec. 17.0 TT = JDT 2459200.5
T 2020 Dec. 5.37895 TT                                  Rudenko
q   1.6175448            (2000.0)            P               Q
n   0.17967884     Peri.  155.92042     -0.91885040     -0.39459936
a   3.1103178      Node     0.84881     +0.33215400     -0.77656255
e   0.4799423      Incl.    8.93099     +0.21304381     -0.49116388
P   5.49
From 61 observations 2010 Jan. 22-2021 Jan. 17, mean residual 0".6.

* Magnitudes Graph

        m1 = 17.0 + 5 log d + 10.0 log r

---------------------------------------------------------------------

The orbital elements are published on M.P.E.C. 2021-B143.
The magnitudes graphs are made with Comet for Windows.

---------------------------------------------------------------------

Copyright(C) Seiichi Yoshida (comet@aerith.net). All rights reserved.